STARLINK-1766

decayed
NORAD ID: 46677 Int'l Des: 2020-073 Owner: SPXS Country: US Constellation: starlink
LEOCIRCULAR
グループ

STARLINK-1766について

説明を読み込み中...

高度履歴

Altitude vs Time

uPlot chart will show altitude changes over time

軌道要素

1 46677U 20073H 24258.53856100 .86010982 12381-4 62886-3 0 9997
2 46677 53.0263 88.9252 0023688 150.9659 302.7980 16.50969968216903
Epoch: Sep 14, 2024 • Age: 8637 hours

現在のステータス

Position data unavailable
打ち上げ日 Oct 18, 2020
運用期間 4.8 years
落下予定日 Sep 15, 2024
タイプ internet

技術仕様

分類 Payload
質量 260.00 kg
乾燥質量 248.00 kg
総質量 260.00 kg
長さ 0.20 m
直径 2.80 m
スパン 9.00 m
形状 Box + pan
製造者 SPXS
バスタイプ Starlink
フェーズステータス Unknown Transfer Status
所有者/国 SPXS/US

大規模コンステレーション

Loading constellations...